| time (UTC) | temp F | wind direction | speed knots | gust knots | rain 1hr in | rain 24hr in | rain mn in | humidity % | barometer mb |
| 20260903000226 | 81 | 139 | 0.0 | 0.0 | 0.00 | 0.24 | 0.24 | 93 | 1013.7 |
| 20260902233224 | 82 | 139 | 0.0 | 0.0 | 0.00 | 0.24 | 0.24 | 91 | 1013.5 |
| 20260902230224 | 84 | 139 | 0.0 | 0.0 | 0.00 | 0.24 | 0.24 | 86 | 1013.3 |
| 20260902223224 | 85 | 161 | 0.0 | 0.0 | 0.00 | 0.24 | 0.24 | 84 | 1013.7 |
| 20260902220224 | 85 | 160 | 0.0 | 0.0 | 0.00 | 0.24 | 0.24 | 87 | 1013.9 |
| 20260902213224 | 83 | 199 | 0.0 | 0.0 | 0.00 | 0.24 | 0.24 | 91 | 1014.1 |
| 20260902210224 | 81 | 208 | 0.0 | 0.0 | 0.03 | 0.24 | 0.24 | 94 | 1014.4 |
| 20260902200223 | 82 | 210 | 4.3 | 5.2 | 0.21 | 0.21 | 0.21 | 85 | 1015.4 |
| 20260902193223 | 86 | 175 | 0.0 | 4.3 | 0.00 | 0.00 | 0.00 | 80 | 1014.9 |
| 20260902190223 | 93 | 228 | 1.7 | 2.6 | 0.00 | 0.00 | 0.00 | 60 | 1015.0 |
| 20260902183223 | 94 | 292 | 0.0 | 1.7 | 0.00 | 0.00 | 0.00 | 58 | 1015.3 |
| 20260902180223 | 93 | 11 | 0.0 | 0.0 | 0.00 | 0.00 | 0.00 | 64 | 1015.9 |
| 20260902173223 | 94 | 91 | 1.7 | 4.3 | 0.00 | 0.00 | 0.00 | 59 | 1016.3 |
| 20260902170223 | 92 | 41 | 0.0 | 0.0 | 0.00 | 0.00 | 0.00 | 67 | 1016.6 |
| 20260902163223 | 91 | 349 | 0.0 | 0.0 | 0.00 | 0.00 | 0.00 | 69 | 1016.9 |
| 20260902150222 | 87 | 260 | 0.0 | 1.7 | 0.00 | 0.00 | 0.00 | 80 | 1017.0 |
| 20260902143222 | 85 | 295 | 1.7 | 1.7 | 0.00 | 0.00 | 0.00 | 82 | 1017.0 |
| 20260902140222 | 83 | 359 | 1.7 | 2.6 | 0.00 | 0.00 | 0.00 | 88 | 1016.9 |
| 20260902133222 | 80 | 17 | 0.0 | 0.0 | 0.00 | 0.00 | 0.00 | 93 | 1017.1 |
| 20260902130221 | 77 | 309 | 0.0 | 0.0 | 0.00 | 0.00 | 0.00 | 94 | 1017.1 |
| 20260902123221 | 74 | 288 | 0.0 | 0.0 | 0.00 | 0.00 | 0.00 | 94 | 1017.0 |
| 20260902113220 | 73 | 278 | 0.0 | 0.0 | 0.00 | 0.00 | 0.00 | 94 | 1016.4 |
| 20260902103220 | 73 | 278 | 0.0 | 0.0 | 0.00 | 0.00 | 0.00 | 94 | 1016.0 |
| 20260902100220 | 73 | 278 | 0.0 | 0.0 | 0.00 | 0.00 | 0.00 | 95 | 1016.0 |
| 20260902093220 | 73 | 278 | 0.0 | 0.0 | 0.00 | 0.00 | 0.00 | 95 | 1015.8 |
| 20260902083220 | 73 | 278 | 0.0 | 0.0 | 0.00 | 0.00 | 0.00 | 95 | 1015.3 |
| 20260902080220 | 73 | 278 | 0.0 | 0.0 | 0.00 | 0.00 | 0.00 | 95 | 1015.3 |
| 20260902073219 | 73 | 278 | 0.0 | 0.0 | 0.00 | 0.00 | 0.00 | 95 | 1015.3 |
| 20260902063219 | 74 | 278 | 0.0 | 0.0 | 0.00 | 0.00 | 0.00 | 95 | 1015.6 |
| 20260902060219 | 74 | 278 | 0.0 | 0.0 | 0.00 | 0.00 | 0.00 | 95 | 1015.7 |
| 20260902050219 | 75 | 278 | 0.0 | 0.0 | 0.00 | 0.00 | 0.00 | 94 | 1015.7 |
| 20260902043219 | 75 | 278 | 0.0 | 0.0 | 0.00 | 0.00 | 0.00 | 94 | 1015.8 |
| 20260902040219 | 76 | 278 | 0.0 | 0.0 | 0.00 | 0.00 | 0.00 | 93 | 1016.1 |
| 20260902030219 | 76 | 278 | 0.0 | 0.0 | 0.00 | 0.00 | 0.00 | 91 | 1016.1 |
| 20260902023219 | 77 | 278 | 0.0 | 0.0 | 0.00 | 0.00 | 0.00 | 89 | 1015.8 |
| 20260902020219 | 78 | 278 | 0.0 | 0.0 | 0.00 | 0.00 | 0.00 | 87 | 1015.6 |
| 20260902013219 | 79 | 278 | 0.0 | 0.0 | 0.00 | 0.00 | 0.00 | 85 | 1015.2 |
| 20260902010219 | 80 | 266 | 0.0 | 0.0 | 0.00 | 0.00 | 0.00 | 81 | 1015.0 |